Temperature
18 19 20 21 21 20 20 19 19 20 19 20 19 19 20 21 21 21 22 22 23 23 24 24 24 24 24 23 23 22 22 22 21 21 21 20 20 19 19 19 18 18 18 18
19 19 20 20 21 20 20 20 19 20 20 19 19 20 20 20 20 21 21 22 22 23 24 24 24 24 24 23 23 22 22 22 21 21 20 20 20 19 19 19 18 18 18 18
17 18 20 19 20 20 20 19 19 19 19 18 18 18 19 20 21 21 22 22 23 23 23 24 24 23 23 23 23 22 22 21 21 20 20 20 20 19 19 19 18 18 17 17
15 18 19 19 19 19 19 19 18 18 18 18 18 19 20 21 21 21 22 22 22 23 23 23 23 23 23 22 22 22 21 21 21 20 20 20 19 19 19 18 18 18 17 17
13 16 17 18 19 19 19 18 17 17 17 17 18 19 20 21 21 21 21 21 22 22 23 23 23 22 22 22 22 21 21 21 21 20 20 19 19 19 18 18 18 17 17 17
13 16 16 17 18 18 18 18 17 16 16 16 16 17 18 20 20 20 20 21 21 22 22 22 22 22 21 21 21 21 21 20 20 20 19 19 19 18 18 17 17 17 16 16
13 15 15 16 17 18 18 17 16 16 16 16 16 17 18 19 19 19 20 20 21 21 21 21 22 22 21 21 20 20 20 20 19 19 19 18 18 18 17 17 16 16 16 16
12 14 15 16 16 15 15 16 16 16 16 16 16 17 17 18 18 19 19 19 19 20 20 20 21 21 20 20 20 19 19 19 18 18 18 17 17 17 17 16 16 16 15 15
12 13 14 14 15 15 15 15 16 16 16 16 16 16 17 17 18 18 18 19 19 19 19 19 20 20 19 19 19 19 18 18 18 18 17 17 17 16 16 16 16 15 15 15
11 12 13 14 15 15 15 15 16 16 16 16 16 16 16 16 17 17 17 18 18 18 18 18 18 18 18 18 18 18 17 17 17 17 17 16 16 15 15 15 15 15 15 14
11 12 13 14 15 15 15 15 15 15 15 15 15 15 15 16 16 16 16 16 17 17 17 18 17 17 17 17 17 17 17 17 16 16 16 16 15 15 15 15 15 15 15 14
11 12 12 13 14 14 14 14 14 14 14 15 15 15 15 15 15 15 16 16 16 16 16 16 16 16 17 17 16 16 16 16 16 15 15 15 15 14 14 14 14 14 14 14
13 14 13 14 14 14 14 14 14 14 14 14 14 14 14 14 14 15 15 15 15 15 15 15 15 16 16 16 16 16 16 15 15 15 15 14 14 14 14 13 13 13 13 13
13 13 13 13 13 13 13 13 14 14 14 14 14 14 14 14 14 14 14 14 14 14 14 14 14 15 15 15 15 15 15 15 15 15 14 14 14 14 13 13 13 13 12 12
13 13 13 13 13 13 13 13 13 13 13 13 13 13 14 14 13 14 14 14 14 14 14 14 14 14 14 14 15 15 15 14 14 14 14 14 13 13 13 13 12 12 12 11
13 13 13 12 12 13 13 13 13 13 13 13 13 13 13 13 13 13 13 13 13 13 13 13 13 13 14 14 14 14 14 14 14 14 14 13 13 13 12 12 12 11 11 11
12 12 12 12 12 12 12 12 12 12 12 12 12 13 13 13 13 13 13 13 13 13 13 13 13 13 13 13 13 13 13 13 13 13 13 13 12 12 12 12 11 11 11 11
12 12 12 12 12 12 12 12 12 12 12 12 12 12 12 12 12 12 12 12 12 12 12 12 13 13 13 13 13 13 13 13 13 12 12 12 12 12 11 11 11 10 10 10
12 12 12 12 12 12 12 12 12 12 12 12 12 12 12 12 12 12 12 12 12 12 12 12 12 12 12 12 12 12 12 12 12 12 12 11 11 11 11 10 10 10 10 10
12 12 12 12 11 12 12 12 11 11 11 11 11 11 12 12 12 12 12 12 12 12 12 12 12 12 12 12 12 12 12 12 12 11 11 11 11 11 10 10 10 10 9 9
12 11 11 11 11 11 11 11 11 11 11 11 11 11 11 11 11 11 11 11 11 11 11 11 11 11 11 11 11 11 11 11 11 11 11 10 10 10 10 10 9 9 9 9
11 11 11 11 11 11 11 11 11 10 10 10 10 10 11 10 10 11 11 11 11 11 11 11 11 11 11 11 11 11 11 11 10 10 10 10 10 10 9 9 9 9 8 8
11 10 10 10 10 10 10 10 10 10 10 10 10 10 10 10 10 10 10 10 10 11 11 11 10 10 10 10 10 10 10 10 10 10 10 9 9 9 9 9 9 8 8 8
10 10 10 10 10 10 10 10 10 10 10 10 10 10 10 10 10 10 10 10 10 10 10 10 10 10 10 10 10 9 9 9 9 9 9 9 9 9 8 8 8 8 8 8
10 10 10 10 10 10 10 10 9 10 10 10 10 10 10 10 10 10 10 10 10 10 10 10 10 10 9 9 9 9 9 9 9 9 8 8 8 8 8 8 8 7 7 7
10 10 10 10 10 10 9 9 9 9 9 9 10 10 10 10 10 10 10 10 10 10 10 9 9 9 9 9 9 9 8 8 8 8 8 8 8 8 7 7 7 7 7 7
10 10 10 10 10 9 9 9 9 9 9 9 9 9 9 9 9 9 9 9 9 9 9 9 9 9 9 9 9 8 8 8 8 8 8 7 7 7 7 7 7 7 6 6
Wind_Speed
4 4 3 3 3 4 5 8 8 8 7 8 7 6 5 3 1 1 2 3 5 5 5 5 6 6 7 7 6 6 7 8 9 8 7 7 7 7 6 5 5 4 3 2
2 2 2 3 4 4 4 4 5 3 6 7 5 3 3 3 2 3 3 4 4 4 5 6 6 6 5 5 6 7 8 8 7 7 7 8 7 7 6 5 4 4 3 3
3 3 2 3 4 4 3 2 4 5 6 4 4 4 5 5 4 5 5 5 5 6 7 7 7 6 6 5 4 5 6 6 6 7 7 7 7 7 6 6 5 4 4 3
2 1 6 7 2 2 3 1 1 1 3 4 6 7 5 4 4 4 4 4 5 5 5 5 5 5 5 5 5 6 6 6 6 6 6 6 6 6 6 5 5 4 3 3
4 3 4 5 1 1 1 1 1 1 4 5 5 4 3 2 2 4 5 5 5 5 5 4 4 5 5 4 5 5 6 6 6 6 6 7 7 6 5 5 4 3 3 3
4 4 7 6 4 4 2 3 3 3 3 4 4 2 5 5 5 5 4 3 3 2 2 3 4 5 5 5 5 6 5 5 5 6 6 7 7 7 5 5 5 4 3 3
4 4 6 5 6 3 3 5 6 5 4 3 3 6 7 6 5 3 3 3 2 1 2 3 3 6 6 6 6 6 5 5 6 6 6 5 5 5 6 6 5 4 3 2
4 4 6 4 3 2 4 5 5 5 5 5 6 7 6 5 3 2 2 2 1 1 1 1 3 5 6 6 5 4 4 4 5 5 5 5 6 5 5 6 5 4 3 2
6 6 4 2 2 4 4 4 5 5 6 5 6 6 5 4 3 3 2 1 1 1 1 0 2 4 5 3 4 5 5 4 4 4 4 5 6 6 5 5 5 4 4 3
2 5 5 5 4 4 3 4 6 6 6 5 5 5 5 4 3 3 3 2 1 1 1 0 0 2 4 4 5 6 5 4 4 4 4 4 4 5 5 5 5 5 4 4
4 6 6 5 4 4 4 4 4 5 5 5 4 5 4 3 3 3 3 2 1 1 2 2 1 1 3 4 6 6 5 5 5 4 5 4 4 2 3 3 5 6 5 5
6 7 5 7 6 5 5 5 5 5 6 5 4 3 3 2 3 3 3 2 1 0 1 1 2 1 2 4 6 6 5 5 5 5 4 5 5 3 4 3 3 4 4 5
7 6 6 7 7 6 4 4 4 4 4 5 4 3 1 1 2 3 3 3 2 1 1 1 2 1 1 2 4 5 5 4 4 5 5 5 5 5 3 3 5 5 4 5
6 4 5 6 6 6 5 4 4 3 3 2 2 1 0 0 1 2 2 3 2 0 1 1 1 1 1 2 3 4 4 4 4 4 4 5 5 5 4 4 3 1 2 4
6 5 7 7 6 6 4 3 2 3 3 2 1 1 1 1 0 1 2 2 1 1 0 1 1 1 1 1 3 4 4 3 4 4 4 5 5 5 5 5 4 3 2 2
6 5 5 5 6 5 4 3 3 4 3 3 3 2 2 1 1 1 1 1 1 1 1 1 1 2 1 2 3 3 3 4 4 4 4 5 5 5 5 5 5 4 4 3
3 5 5 6 5 5 5 5 5 4 3 3 3 3 2 0 0 0 1 1 1 0 0 1 2 2 0 1 2 2 2 3 4 4 4 5 5 5 5 5 5 5 4 4
5 6 6 6 5 5 5 5 5 5 4 4 4 3 2 2 2 1 1 0 2 2 1 1 1 1 0 1 2 2 2 2 2 3 3 4 4 4 5 5 5 5 3 3
3 4 4 4 4 4 5 5 4 3 3 3 2 3 3 3 3 2 1 1 1 0 2 2 1 0 0 1 2 2 3 3 3 3 3 5 5 4 4 4 4 4 4 4
3 3 3 3 3 2 3 3 2 2 3 2 1 1 1 1 2 2 2 0 1 2 2 0 0 1 1 1 3 2 3 3 3 3 4 4 4 4 4 4 4 4 4 4
3 3 3 3 4 4 3 2 2 2 3 2 1 1 1 0 1 1 1 0 2 2 0 1 1 1 1 3 4 3 3 4 4 4 4 4 4 4 4 4 4 4 4 3
3 2 3 3 3 4 4 2 1 1 2 1 1 1 1 1 1 1 1 1 2 1 1 1 1 2 3 4 3 3 4 4 4 4 4 4 4 4 4 4 4 3 3 3
3 2 2 2 2 3 4 3 2 1 1 1 0 1 1 1 1 1 1 1 1 1 2 1 2 5 6 4 3 3 4 4 4 4 4 4 4 4 4 4 4 3 3 3
2 2 2 3 3 3 4 4 3 2 2 1 1 1 1 1 0 1 1 1 1 3 2 3 5 6 6 4 4 4 4 4 4 4 4 4 4 4 3 4 3 3 3 4
2 2 2 2 2 2 3 3 3 2 2 2 2 2 0 1 1 1 1 2 3 4 3 3 5 5 5 4 4 4 4 4 4 4 4 3 3 3 3 3 3 3 3 3
2 2 2 2 2 2 2 1 1 1 1 1 2 2 2 1 2 2 2 2 3 3 3 2 3 4 4 4 4 3 3 4 4 4 4 4 3 3 3 3 3 2 2 3
3 2 2 2 2 1 1 1 1 1 1 0 1 2 2 2 3 3 3 3 2 3 3 3 3 3 3 3 3 3 3 3 3 3 3 3 3 3 3 3 3 2 3 3
Wind_Direction
226 236 210 222 232 195 188 185 185 216 222 257 269 269 271 266 238 137 145 163 179 187 189 188 191 193 190 184 180 181 185 193 200 193 182 179 178 177 180 183 185 169 169 177
267 274 227 256 264 214 213 194 195 203 248 271 283 295 286 258 207 196 200 203 203 200 197 197 199 199 202 196 182 180 191 203 197 186 183 182 182 177 172 172 168 159 175 185
240 297 16 260 235 196 190 193 169 200 248 298 313 290 258 243 222 218 218 211 204 209 210 207 206 200 195 197 182 178 189 195 190 186 185 185 183 175 177 177 168 168 177 180
167 102 215 235 273 178 152 127 156 228 281 270 268 276 260 232 218 241 241 230 223 219 225 218 198 188 180 170 169 179 184 185 181 183 186 181 176 178 177 167 166 170 168 163
136 178 258 287 292 117 147 234 6 321 318 327 335 345 319 292 277 260 247 235 229 222 218 209 189 175 161 167 176 183 187 186 180 179 184 184 183 183 175 159 161 166 157 152
137 168 219 240 292 304 161 237 330 347 321 326 7 349 283 311 319 303 287 263 240 231 204 194 180 155 158 175 181 197 193 187 176 178 184 187 183 178 169 160 165 163 155 151
168 203 251 269 306 9 150 250 304 303 287 287 256 245 265 291 301 301 297 283 246 201 213 208 178 157 165 177 195 196 172 162 165 169 173 177 173 167 158 153 154 161 157 147
157 188 243 314 32 128 239 273 286 285 275 280 287 281 274 272 276 294 317 312 268 178 212 219 176 162 174 188 185 151 138 147 147 149 157 157 158 161 157 156 162 166 158 156
193 214 244 281 261 265 250 272 280 278 287 287 290 285 285 283 294 298 296 282 267 205 183 193 168 165 179 182 147 134 130 143 143 139 143 148 155 158 159 162 165 173 177 187
280 278 287 292 297 296 278 272 284 283 284 277 281 282 288 294 299 305 297 268 251 202 172 170 260 179 165 155 145 140 141 142 150 156 155 157 164 164 168 174 177 178 190 195
269 283 308 302 302 301 307 315 317 315 304 287 286 291 292 300 306 312 314 312 266 203 193 178 190 203 151 145 144 146 149 156 166 170 165 160 148 147 170 184 191 183 193 191
238 245 245 271 284 294 296 302 309 318 322 318 301 290 306 314 324 325 315 306 303 175 190 188 180 193 163 146 149 156 162 168 172 174 168 162 158 137 73 94 108 132 157 166
237 252 249 263 283 281 267 274 291 298 298 307 312 298 298 321 339 352 338 324 307 281 224 189 175 173 189 155 157 164 171 175 176 177 177 174 170 170 162 89 82 95 120 137
247 253 273 273 275 281 276 277 289 290 295 298 291 295 50 4 6 356 322 306 294 223 144 141 149 233 234 172 150 154 162 169 172 176 175 176 177 175 177 170 164 131 87 116
261 246 249 266 272 279 280 279 295 290 295 306 292 240 191 180 234 289 297 319 360 32 45 120 145 255 254 162 150 151 159 172 171 170 168 169 169 168 170 172 168 151 125 100
275 283 276 265 262 271 280 269 261 271 283 284 286 281 263 227 227 289 315 19 76 317 324 352 312 293 281 167 151 154 171 171 163 163 164 162 165 169 169 167 164 162 168 164
264 282 283 275 271 277 275 265 252 251 261 273 267 275 285 269 40 26 343 337 127 157 261 265 291 304 291 173 151 160 159 165 156 153 165 168 170 173 170 165 167 172 176 169
242 253 261 259 261 272 282 280 269 261 244 240 250 247 225 197 182 198 232 63 71 43 346 281 278 312 254 162 147 154 159 154 152 153 156 159 162 162 158 158 163 165 158 150
271 277 286 280 267 262 272 277 277 274 266 263 242 222 212 199 179 169 156 119 115 297 299 304 308 37 78 177 135 149 147 138 134 134 139 142 143 145 149 151 153 156 157 155
305 304 304 312 314 291 283 291 298 302 297 281 245 212 176 169 146 135 122 150 260 258 258 310 64 105 183 147 126 141 140 136 134 133 136 139 141 145 146 145 146 151 158 161
306 320 329 334 330 324 304 298 315 308 306 299 217 199 187 152 116 119 127 279 301 309 298 116 118 140 144 137 127 130 127 128 126 131 136 138 139 140 141 139 141 148 153 153
322 331 329 330 332 327 322 318 331 324 333 6 119 127 120 107 95 88 151 222 258 280 76 77 86 108 111 112 114 119 119 120 119 122 128 133 134 135 137 139 146 148 147 149
334 332 320 315 315 312 327 337 346 352 359 7 65 163 168 203 207 185 252 273 227 110 86 78 102 102 100 94 100 108 112 113 116 121 128 136 138 140 143 143 144 142 144 147
328 328 327 325 339 355 344 333 339 340 335 333 320 215 177 170 327 266 208 187 141 111 100 107 103 98 95 88 91 95 101 105 111 113 116 122 127 131 136 138 140 143 148 149
304 311 322 333 345 334 323 328 348 355 359 359 359 3 1 193 198 218 127 121 111 105 100 98 104 107 103 98 99 103 109 115 117 117 117 120 124 127 127 131 139 145 150 150
310 307 301 292 287 291 303 322 338 345 1 2 359 5 20 42 89 99 93 89 89 96 101 99 103 106 106 108 111 115 115 113 109 111 118 120 119 121 126 133 136 142 144 145
326 332 333 331 330 319 313 326 332 334 339 47 33 20 34 53 69 78 84 81 76 84 91 95 104 113 120 123 123 120 117 118 121 123 126 125 125 127 133 135 132 131 134 133
Height
1500 1496 1495 1495 1495 1497 1500 1504 1510 1507 1505 1495 1489 1486 1483 1482 1482 1482 1483 1485 1486 1488 1491 1494 1496 1499 1501 1504 1506 1509 1512 1514 1516 1518 1519 1520 1522 1523 1525 1526 1526 1526 1527 1528
1499 1495 1495 1495 1492 1493 1494 1496 1498 1498 1498 1488 1486 1485 1483 1481 1481 1480 1481 1482 1484 1486 1488 1491 1493 1495 1497 1500 1502 1505 1507 1510 1512 1514 1515 1516 1518 1519 1521 1522 1523 1524 1524 1525
1507 1500 1495 1501 1492 1491 1491 1490 1492 1497 1493 1487 1485 1482 1480 1479 1478 1478 1479 1480 1481 1483 1485 1487 1489 1492 1494 1496 1499 1501 1503 1506 1508 1510 1511 1513 1514 1515 1517 1518 1519 1520 1521 1522
1511 1504 1511 1498 1485 1485 1487 1489 1488 1488 1487 1485 1482 1479 1478 1477 1477 1477 1478 1478 1479 1480 1482 1484 1486 1488 1491 1493 1495 1497 1499 1501 1503 1505 1507 1509 1511 1512 1513 1515 1516 1517 1518 1518
1515 1513 1506 1493 1485 1486 1488 1490 1487 1486 1485 1483 1481 1478 1476 1476 1477 1477 1476 1476 1477 1478 1479 1481 1482 1485 1487 1490 1491 1493 1495 1496 1498 1500 1503 1505 1507 1509 1510 1512 1513 1514 1515 1515
1512 1511 1511 1495 1484 1482 1485 1491 1485 1484 1484 1483 1482 1484 1478 1475 1475 1475 1475 1475 1475 1475 1477 1478 1479 1481 1484 1485 1487 1489 1490 1492 1494 1497 1499 1501 1503 1506 1507 1508 1509 1511 1512 1512
1509 1508 1501 1489 1483 1481 1495 1493 1485 1483 1482 1482 1482 1480 1476 1474 1473 1472 1472 1472 1472 1472 1473 1474 1476 1477 1479 1481 1483 1485 1487 1489 1491 1493 1495 1497 1500 1502 1504 1504 1506 1507 1509 1510
1509 1508 1503 1486 1485 1489 1490 1484 1482 1480 1480 1478 1477 1475 1472 1470 1470 1469 1468 1469 1469 1469 1469 1471 1472 1474 1476 1478 1480 1482 1483 1485 1487 1490 1491 1493 1496 1498 1500 1501 1502 1503 1505 1506
1500 1498 1489 1486 1486 1485 1484 1482 1480 1478 1476 1475 1473 1471 1469 1468 1467 1467 1466 1466 1466 1466 1466 1467 1469 1471 1473 1474 1477 1479 1481 1482 1484 1486 1487 1489 1492 1494 1496 1497 1498 1499 1501 1502
1494 1488 1486 1484 1483 1482 1481 1480 1478 1476 1474 1472 1470 1469 1467 1466 1466 1465 1464 1464 1463 1464 1464 1464 1466 1468 1469 1471 1473 1475 1477 1479 1482 1483 1485 1486 1488 1491 1492 1493 1494 1495 1497 1498
1492 1487 1484 1481 1481 1480 1478 1477 1475 1473 1472 1470 1468 1466 1465 1464 1464 1463 1463 1463 1462 1461 1461 1462 1465 1465 1466 1468 1470 1472 1474 1476 1478 1480 1481 1483 1485 1487 1488 1489 1491 1492 1493 1494
1489 1484 1484 1480 1478 1477 1476 1474 1473 1471 1469 1468 1466 1464 1463 1463 1463 1463 1462 1462 1460 1460 1460 1461 1463 1464 1464 1465 1467 1470 1471 1473 1475 1476 1478 1480 1482 1484 1485 1486 1487 1488 1490 1491
1482 1481 1480 1477 1476 1475 1473 1472 1471 1469 1467 1465 1463 1462 1461 1461 1461 1461 1462 1461 1459 1459 1460 1460 1461 1462 1462 1463 1464 1466 1468 1469 1471 1473 1474 1476 1478 1480 1481 1483 1484 1485 1486 1487
1479 1478 1476 1474 1473 1472 1471 1469 1467 1466 1464 1462 1460 1459 1459 1459 1459 1459 1460 1461 1460 1460 1459 1459 1460 1460 1460 1461 1462 1464 1466 1467 1468 1469 1471 1473 1475 1477 1479 1479 1481 1482 1483 1483
1475 1474 1473 1471 1470 1469 1467 1465 1464 1462 1460 1459 1458 1457 1456 1456 1456 1457 1457 1458 1459 1459 1458 1458 1458 1459 1459 1459 1460 1461 1463 1464 1465 1466 1467 1469 1471 1473 1475 1477 1478 1478 1479 1480
1471 1470 1469 1468 1466 1465 1464 1462 1460 1459 1457 1456 1455 1454 1454 1454 1453 1454 1455 1455 1456 1456 1455 1456 1456 1456 1456 1458 1458 1459 1460 1462 1462 1463 1463 1465 1467 1470 1471 1473 1474 1475 1476 1478
1468 1466 1465 1463 1462 1461 1460 1459 1457 1455 1454 1453 1452 1452 1452 1451 1451 1452 1453 1454 1454 1454 1454 1455 1455 1455 1456 1456 1456 1457 1458 1459 1459 1460 1461 1463 1464 1466 1467 1469 1470 1472 1474 1475
1464 1463 1462 1460 1459 1458 1457 1455 1454 1452 1451 1450 1449 1449 1449 1449 1449 1450 1451 1453 1453 1453 1454 1455 1455 1454 1455 1455 1455 1456 1457 1457 1458 1458 1459 1461 1462 1463 1465 1466 1467 1469 1471 1473
1461 1460 1459 1458 1457 1456 1455 1452 1451 1449 1448 1447 1447 1447 1447 1448 1448 1449 1450 1451 1451 1451 1452 1453 1454 1453 1453 1454 1454 1454 1455 1455 1455 1457 1458 1459 1460 1461 1463 1464 1466 1467 1469 1471
1458 1457 1456 1456 1454 1453 1452 1450 1449 1448 1447 1446 1446 1445 1445 1446 1447 1448 1449 1449 1449 1450 1450 1450 1451 1451 1452 1452 1453 1454 1453 1454 1454 1455 1456 1457 1458 1460 1461 1463 1464 1466 1467 1468
1456 1455 1455 1454 1453 1452 1450 1449 1448 1447 1446 1445 1444 1444 1444 1445 1446 1446 1447 1448 1449 1449 1449 1448 1449 1450 1451 1451 1451 1452 1452 1452 1452 1454 1455 1456 1457 1459 1460 1461 1463 1464 1466 1467
1455 1454 1453 1452 1451 1450 1449 1447 1446 1445 1444 1443 1443 1444 1444 1445 1445 1446 1447 1448 1448 1449 1448 1448 1448 1449 1449 1449 1450 1450 1451 1451 1452 1453 1454 1455 1456 1458 1459 1460 1462 1463 1464 1465
1455 1454 1453 1452 1451 1449 1448 1447 1446 1445 1444 1443 1443 1443 1444 1444 1445 1445 1446 1447 1448 1448 1448 1448 1448 1449 1449 1449 1450 1450 1451 1451 1452 1453 1454 1455 1456 1457 1458 1459 1461 1462 1464 1465
1455 1454 1453 1452 1450 1448 1447 1446 1445 1445 1444 1444 1443 1443 1443 1444 1444 1445 1445 1446 1447 1447 1448 1449 1449 1449 1450 1450 1450 1451 1451 1452 1453 1453 1454 1456 1457 1458 1459 1460 1461 1462 1463 1464
1455 1454 1453 1451 1450 1448 1447 1446 1445 1444 1444 1443 1443 1443 1443 1443 1444 1445 1445 1446 1447 1447 1448 1449 1450 1450 1451 1451 1451 1452 1452 1453 1454 1454 1456 1457 1457 1458 1459 1459 1460 1461 1462 1462
1454 1453 1452 1451 1450 1449 1448 1447 1446 1445 1444 1444 1443 1443 1443 1444 1444 1444 1445 1446 1447 1448 1449 1450 1451 1452 1452 1452 1453 1454 1454 1454 1455 1456 1456 1457 1458 1458 1458 1459 1459 1460 1460 1460
1453 1452 1452 1451 1450 1449 1448 1447 1446 1446 1445 1445 1444 1444 1444 1445 1445 1446 1446 1447 1448 1449 1450 1451 1451 1452 1453 1454 1454 1454 1455 1455 1456 1456 1457 1457 1458 1458 1458 1459 1459 1459 1459 1459